FIREBIRD 4 (40378 NORAD) Tracking and Keplerian Element Data

This shows tracking and keplerian element data for the satellite.

Feedback or suggestion? Click here.




ElementValue
Catalog40378
NameFIREBIRD 4
Epoch Orbit43227
Epoch Day324.19231191
Epoch Year2022
RAAN224.5854
Inclination99.0792
Eccentricity0.0085501
Argument of Perigee213.853
Mean Anonmoly145.7234
Mean Motion15.3644979
Decay Rate0.00019978
L11 40378U 15003C 22324.19231191 .00019978 00000+0 49915-3 0 9995
L22 40378 99.0792 224.5854 0085501 213.8530 145.7234 15.36449790432273



Live tracking and technical data element details for FIREBIRD 4 (NORAD 40378). FIREBIRD 4 can be tracked NOW for your location showing map with azimuth and elevation plus other details from your city location.







IsCatalogInMostPopularTable: catalog: 40378, numindb: 318
Update: records affected: 1



GetName: 40378 FIREBIRD 4

Hit Count: updated at: Mon, 28 Nov 2022 05:28:44 GMT